Year,Month,Day,Hour,Minute,Value (Times are PST for windgust in km/hr)
2009,10,23,00,00,1.60
2009,10,23,00,01,1.60
2009,10,23,00,02,1.60
2009,10,23,00,03,1.60
2009,10,23,00,04,8.10
2009,10,23,00,05,8.10
2009,10,23,00,06,3.20
2009,10,23,00,07,8.10
2009,10,23,00,08,3.20
2009,10,23,00,09,1.60
2009,10,23,00,10,3.20
2009,10,23,00,11,0.00
2009,10,23,00,12,1.60
2009,10,23,00,13,3.20
2009,10,23,00,14,4.80
2009,10,23,00,15,3.20
2009,10,23,00,16,1.60
2009,10,23,00,17,0.00
2009,10,23,00,18,0.00
2009,10,23,00,19,11.30
2009,10,23,00,20,1.60
2009,10,23,00,21,3.20
2009,10,23,00,22,4.80
2009,10,23,00,23,4.80
2009,10,23,00,24,8.10
2009,10,23,00,25,4.80
2009,10,23,00,26,3.20
2009,10,23,00,27,6.40
2009,10,23,00,28,3.20
2009,10,23,00,29,0.00
2009,10,23,00,30,4.80
2009,10,23,00,31,3.20
2009,10,23,00,32,0.00
2009,10,23,00,33,0.00
2009,10,23,00,34,1.60
2009,10,23,00,35,0.00
2009,10,23,00,36,0.00
2009,10,23,00,37,1.60
2009,10,23,00,38,0.00
2009,10,23,00,39,0.00
2009,10,23,00,40,1.60
2009,10,23,00,41,3.20
2009,10,23,00,42,0.00
2009,10,23,00,43,1.60
2009,10,23,00,44,1.60
2009,10,23,00,45,3.20
2009,10,23,00,46,1.60
2009,10,23,00,47,0.00
2009,10,23,00,48,0.00
2009,10,23,00,49,0.00
2009,10,23,00,50,0.00
2009,10,23,00,51,1.60
2009,10,23,00,52,1.60
2009,10,23,00,53,0.00
2009,10,23,00,54,0.00
2009,10,23,00,55,0.00
2009,10,23,00,56,0.00
2009,10,23,00,57,0.00
2009,10,23,00,58,0.00
2009,10,23,00,59,0.00
2009,10,23,01,00,0.00
2009,10,23,01,01,0.00
2009,10,23,01,02,0.00
2009,10,23,01,03,0.00
2009,10,23,01,04,0.00
2009,10,23,01,05,0.00
2009,10,23,01,06,3.20
2009,10,23,01,07,3.20
2009,10,23,01,08,0.00
2009,10,23,01,09,1.60
2009,10,23,01,10,1.60
2009,10,23,01,11,0.00
2009,10,23,01,12,0.00
2009,10,23,01,13,0.00
2009,10,23,01,14,0.00
2009,10,23,01,15,0.00
2009,10,23,01,16,1.60
2009,10,23,01,17,1.60
2009,10,23,01,18,1.60
2009,10,23,01,19,1.60
2009,10,23,01,20,0.00
2009,10,23,01,21,0.00
2009,10,23,01,22,1.60
2009,10,23,01,23,0.00
2009,10,23,01,24,1.60
2009,10,23,01,25,1.60
2009,10,23,01,26,1.60
2009,10,23,01,27,1.60
2009,10,23,01,28,3.20
2009,10,23,01,29,1.60
2009,10,23,01,30,4.80
2009,10,23,01,31,4.80
2009,10,23,01,32,3.20
2009,10,23,01,33,1.60
2009,10,23,01,34,4.80
2009,10,23,01,35,6.40
2009,10,23,01,36,4.80
2009,10,23,01,37,6.40
2009,10,23,01,38,9.60
2009,10,23,01,39,6.40
2009,10,23,01,40,6.40
2009,10,23,01,41,8.10
2009,10,23,01,42,8.10
2009,10,23,01,43,4.80
2009,10,23,01,44,4.80
2009,10,23,01,45,6.40
2009,10,23,01,46,4.80
2009,10,23,01,47,11.30
2009,10,23,01,48,3.20
2009,10,23,01,49,1.60
2009,10,23,01,50,3.20
2009,10,23,01,51,9.60
2009,10,23,01,52,6.40
2009,10,23,01,53,3.20
2009,10,23,01,54,3.20
2009,10,23,01,55,1.60
2009,10,23,01,56,0.00
2009,10,23,01,57,4.80
2009,10,23,01,58,4.80
2009,10,23,01,59,3.20
2009,10,23,02,00,3.20
2009,10,23,02,01,8.10
2009,10,23,02,02,3.20
2009,10,23,02,03,4.80
2009,10,23,02,04,6.40
2009,10,23,02,05,8.10
2009,10,23,02,06,6.40
2009,10,23,02,07,4.80
2009,10,23,02,08,3.20
2009,10,23,02,09,6.40
2009,10,23,02,10,6.40
2009,10,23,02,11,6.40
2009,10,23,02,12,8.10
2009,10,23,02,13,1.60
2009,10,23,02,14,1.60
2009,10,23,02,15,4.80
2009,10,23,02,16,4.80
2009,10,23,02,17,6.40
2009,10,23,02,18,6.40
2009,10,23,02,19,3.20
2009,10,23,02,20,6.40
2009,10,23,02,21,3.20
2009,10,23,02,22,3.20
2009,10,23,02,23,4.80
2009,10,23,02,24,3.20
2009,10,23,02,25,3.20
2009,10,23,02,26,9.60
2009,10,23,02,27,8.10
2009,10,23,02,28,6.40
2009,10,23,02,29,8.10
2009,10,23,02,30,4.80
2009,10,23,02,31,1.60
2009,10,23,02,32,6.40
2009,10,23,02,33,3.20
2009,10,23,02,34,0.00
2009,10,23,02,35,0.00
2009,10,23,02,36,1.60
2009,10,23,02,37,3.20
2009,10,23,02,38,3.20
2009,10,23,02,39,3.20
2009,10,23,02,40,1.60
2009,10,23,02,41,0.00
2009,10,23,02,42,1.60
2009,10,23,02,43,1.60
2009,10,23,02,44,1.60
2009,10,23,02,45,3.20
2009,10,23,02,46,4.80
2009,10,23,02,47,0.00
2009,10,23,02,48,0.00
2009,10,23,02,49,1.60
2009,10,23,02,50,1.60
2009,10,23,02,51,0.00
2009,10,23,02,52,1.60
2009,10,23,02,53,1.60
2009,10,23,02,54,1.60
2009,10,23,02,55,3.20
2009,10,23,02,56,3.20
2009,10,23,02,57,3.20
2009,10,23,02,58,1.60
2009,10,23,02,59,0.00
2009,10,23,03,00,0.00
2009,10,23,03,01,0.00
2009,10,23,03,02,0.00
2009,10,23,03,03,1.60
2009,10,23,03,04,1.60
2009,10,23,03,05,4.80
2009,10,23,03,06,1.60
2009,10,23,03,07,1.60
2009,10,23,03,08,0.00
2009,10,23,03,09,1.60
2009,10,23,03,10,3.20
2009,10,23,03,11,4.80
2009,10,23,03,12,4.80
2009,10,23,03,13,4.80
2009,10,23,03,14,4.80
2009,10,23,03,15,3.20
2009,10,23,03,16,1.60
2009,10,23,03,17,0.00
2009,10,23,03,18,3.20
2009,10,23,03,19,1.60
2009,10,23,03,20,1.60
2009,10,23,03,21,1.60
2009,10,23,03,22,3.20
2009,10,23,03,23,3.20
2009,10,23,03,24,1.60
2009,10,23,03,25,3.20
2009,10,23,03,26,1.60
2009,10,23,03,27,0.00
2009,10,23,03,28,3.20
2009,10,23,03,29,1.60
2009,10,23,03,30,3.20
2009,10,23,03,31,4.80
2009,10,23,03,32,3.20
2009,10,23,03,33,4.80
2009,10,23,03,34,6.40
2009,10,23,03,35,3.20
2009,10,23,03,36,4.80
2009,10,23,03,37,3.20
2009,10,23,03,38,6.40
2009,10,23,03,39,8.10
2009,10,23,03,40,8.10
2009,10,23,03,41,3.20
2009,10,23,03,42,3.20
2009,10,23,03,43,3.20
2009,10,23,03,44,3.20
2009,10,23,03,45,9.60
2009,10,23,03,46,4.80
2009,10,23,03,47,9.60
2009,10,23,03,48,8.10
2009,10,23,03,49,4.80
2009,10,23,03,50,6.40
2009,10,23,03,51,6.40
2009,10,23,03,52,1.60
2009,10,23,03,53,0.00
2009,10,23,03,54,0.00
2009,10,23,03,55,0.00
2009,10,23,03,56,0.00
2009,10,23,03,57,1.60
2009,10,23,03,58,3.20
2009,10,23,03,59,0.00
2009,10,23,04,00,1.60
2009,10,23,04,01,1.60
2009,10,23,04,02,3.20
2009,10,23,04,03,4.80
2009,10,23,04,04,3.20
2009,10,23,04,05,4.80
2009,10,23,04,06,6.40
2009,10,23,04,07,1.60
2009,10,23,04,08,6.40
2009,10,23,04,09,3.20
2009,10,23,04,10,4.80
2009,10,23,04,11,4.80
2009,10,23,04,12,0.00
2009,10,23,04,13,1.60
2009,10,23,04,14,6.40
2009,10,23,04,15,4.80
2009,10,23,04,16,1.60
2009,10,23,04,17,3.20
2009,10,23,04,18,4.80
2009,10,23,04,19,4.80
2009,10,23,04,20,6.40
2009,10,23,04,21,3.20
2009,10,23,04,22,1.60
2009,10,23,04,23,4.80
2009,10,23,04,24,3.20
2009,10,23,04,25,3.20
2009,10,23,04,26,4.80
2009,10,23,04,27,4.80
2009,10,23,04,28,3.20
2009,10,23,04,29,0.00
2009,10,23,04,30,4.80
2009,10,23,04,31,8.10
2009,10,23,04,32,1.60
2009,10,23,04,33,1.60
2009,10,23,04,34,3.20
2009,10,23,04,35,1.60
2009,10,23,04,36,1.60
2009,10,23,04,37,3.20
2009,10,23,04,38,3.20
2009,10,23,04,39,3.20
2009,10,23,04,40,3.20
2009,10,23,04,41,1.60
2009,10,23,04,42,1.60
2009,10,23,04,43,3.20
2009,10,23,04,44,1.60
2009,10,23,04,45,0.00
2009,10,23,04,46,0.00
2009,10,23,04,47,0.00
2009,10,23,04,48,1.60
2009,10,23,04,49,1.60
2009,10,23,04,50,1.60
2009,10,23,04,51,0.00
2009,10,23,04,52,0.00
2009,10,23,04,53,0.00
2009,10,23,04,54,1.60
2009,10,23,04,55,0.00
2009,10,23,04,56,1.60
2009,10,23,04,57,3.20
2009,10,23,04,58,0.00
2009,10,23,04,59,0.00
2009,10,23,05,00,6.40
2009,10,23,05,01,1.60
2009,10,23,05,02,1.60
2009,10,23,05,03,0.00
2009,10,23,05,04,0.00
2009,10,23,05,05,0.00
2009,10,23,05,06,3.20
2009,10,23,05,07,0.00
2009,10,23,05,08,0.00
2009,10,23,05,09,4.80
2009,10,23,05,10,4.80
2009,10,23,05,11,0.00
2009,10,23,05,12,0.00
2009,10,23,05,13,0.00
2009,10,23,05,14,1.60
2009,10,23,05,15,0.00
2009,10,23,05,16,0.00
2009,10,23,05,17,3.20
2009,10,23,05,18,4.80
2009,10,23,05,19,1.60
2009,10,23,05,20,3.20
2009,10,23,05,21,8.10
2009,10,23,05,22,1.60
2009,10,23,05,23,6.40
2009,10,23,05,24,8.10
2009,10,23,05,25,6.40
2009,10,23,05,26,0.00
2009,10,23,05,27,6.40
2009,10,23,05,28,3.20
2009,10,23,05,29,1.60
2009,10,23,05,30,3.20
2009,10,23,05,31,14.50
2009,10,23,05,32,9.60
2009,10,23,05,33,3.20
2009,10,23,05,34,1.60
2009,10,23,05,35,6.40
2009,10,23,05,36,1.60
2009,10,23,05,37,8.10
2009,10,23,05,38,4.80
2009,10,23,05,39,1.60
2009,10,23,05,40,0.00
2009,10,23,05,41,0.00
2009,10,23,05,42,1.60
2009,10,23,05,43,3.20
2009,10,23,05,44,3.20
2009,10,23,05,45,3.20
2009,10,23,05,46,4.80
2009,10,23,05,47,1.60
2009,10,23,05,48,3.20
2009,10,23,05,49,3.20
2009,10,23,05,50,3.20
2009,10,23,05,51,4.80
2009,10,23,05,52,1.60
2009,10,23,05,53,0.00
2009,10,23,05,54,4.80
2009,10,23,05,55,4.80
2009,10,23,05,56,1.60
2009,10,23,05,57,3.20
2009,10,23,05,58,3.20
2009,10,23,05,59,4.80
2009,10,23,06,00,3.20
2009,10,23,06,01,1.60
2009,10,23,06,02,1.60
2009,10,23,06,03,1.60
2009,10,23,06,04,1.60
2009,10,23,06,05,1.60
2009,10,23,06,06,1.60
2009,10,23,06,07,4.80
2009,10,23,06,08,3.20
2009,10,23,06,09,1.60
2009,10,23,06,10,1.60
2009,10,23,06,11,0.00
2009,10,23,06,12,0.00
2009,10,23,06,13,0.00
2009,10,23,06,14,9.60
2009,10,23,06,15,6.40
2009,10,23,06,16,8.10
2009,10,23,06,17,6.40
2009,10,23,06,18,9.60
2009,10,23,06,19,6.40
2009,10,23,06,20,4.80
2009,10,23,06,21,4.80
2009,10,23,06,22,1.60
2009,10,23,06,23,1.60
2009,10,23,06,24,3.20
2009,10,23,06,25,3.20
2009,10,23,06,26,4.80
2009,10,23,06,27,4.80
2009,10,23,06,28,8.10
2009,10,23,06,29,0.00
2009,10,23,06,30,0.00
2009,10,23,06,31,4.80
2009,10,23,06,32,4.80
2009,10,23,06,33,4.80
2009,10,23,06,34,3.20
2009,10,23,06,35,4.80
2009,10,23,06,36,3.20
2009,10,23,06,37,1.60
2009,10,23,06,38,1.60
2009,10,23,06,39,1.60
2009,10,23,06,40,0.00
2009,10,23,06,41,1.60
2009,10,23,06,42,3.20
2009,10,23,06,43,4.80
2009,10,23,06,44,0.00
2009,10,23,06,45,1.60
2009,10,23,06,46,3.20
2009,10,23,06,47,1.60
2009,10,23,06,48,4.80
2009,10,23,06,49,1.60
2009,10,23,06,50,1.60
2009,10,23,06,51,3.20
2009,10,23,06,52,6.40
2009,10,23,06,53,8.10
2009,10,23,06,54,6.40
2009,10,23,06,55,4.80
2009,10,23,06,56,1.60
2009,10,23,06,57,1.60
2009,10,23,06,58,1.60
2009,10,23,06,59,1.60
2009,10,23,07,00,3.20
2009,10,23,07,01,3.20
2009,10,23,07,02,3.20
2009,10,23,07,03,3.20
2009,10,23,07,04,4.80
2009,10,23,07,05,4.80
2009,10,23,07,06,3.20
2009,10,23,07,07,1.60
2009,10,23,07,08,6.40
2009,10,23,07,09,1.60
2009,10,23,07,10,0.00
2009,10,23,07,11,0.00
2009,10,23,07,12,1.60
2009,10,23,07,13,1.60
2009,10,23,07,14,1.60
2009,10,23,07,15,3.20
2009,10,23,07,16,3.20
2009,10,23,07,17,3.20
2009,10,23,07,18,3.20
2009,10,23,07,19,0.00
2009,10,23,07,20,1.60
2009,10,23,07,21,1.60
2009,10,23,07,22,1.60
2009,10,23,07,23,3.20
2009,10,23,07,24,6.40
2009,10,23,07,25,8.10
2009,10,23,07,26,4.80
2009,10,23,07,27,6.40
2009,10,23,07,28,9.60
2009,10,23,07,29,4.80
2009,10,23,07,30,1.60
2009,10,23,07,31,0.00
2009,10,23,07,32,1.60
2009,10,23,07,33,4.80
2009,10,23,07,34,3.20
2009,10,23,07,35,3.20
2009,10,23,07,36,0.00
2009,10,23,07,37,8.10
2009,10,23,07,38,1.60
2009,10,23,07,39,6.40
2009,10,23,07,40,4.80
2009,10,23,07,41,3.20
2009,10,23,07,42,1.60
2009,10,23,07,43,4.80
2009,10,23,07,44,3.20
2009,10,23,07,45,1.60
2009,10,23,07,46,6.40
2009,10,23,07,47,6.40
2009,10,23,07,48,1.60
2009,10,23,07,49,6.40
2009,10,23,07,50,4.80
2009,10,23,07,51,3.20
2009,10,23,07,52,9.60
2009,10,23,07,53,6.40
2009,10,23,07,54,0.00
2009,10,23,07,55,0.00
2009,10,23,07,56,8.10
2009,10,23,07,57,1.60
2009,10,23,07,58,4.80
2009,10,23,07,59,4.80
2009,10,23,08,00,4.80
2009,10,23,08,01,3.20
2009,10,23,08,02,4.80
2009,10,23,08,03,8.10
2009,10,23,08,04,3.20
2009,10,23,08,05,6.40
2009,10,23,08,06,4.80
2009,10,23,08,07,8.10
2009,10,23,08,08,9.60
2009,10,23,08,09,6.40
2009,10,23,08,10,4.80
2009,10,23,08,11,14.50
2009,10,23,08,12,1.60
2009,10,23,08,13,4.80
2009,10,23,08,14,8.10
2009,10,23,08,15,6.40
2009,10,23,08,16,4.80
2009,10,23,08,17,6.40
2009,10,23,08,18,14.50
2009,10,23,08,19,11.30
2009,10,23,08,20,1.60
2009,10,23,08,21,1.60
2009,10,23,08,22,4.80
2009,10,23,08,23,8.10
2009,10,23,08,24,1.60
2009,10,23,08,25,6.40
2009,10,23,08,26,4.80
2009,10,23,08,27,1.60
2009,10,23,08,28,3.20
2009,10,23,08,29,1.60
2009,10,23,08,30,4.80
2009,10,23,08,31,0.00
2009,10,23,08,32,0.00
2009,10,23,08,33,0.00
2009,10,23,08,34,6.40
2009,10,23,08,35,6.40
2009,10,23,08,36,4.80
2009,10,23,08,37,6.40
2009,10,23,08,38,6.40
2009,10,23,08,39,0.00
2009,10,23,08,40,0.00
2009,10,23,08,41,0.00
2009,10,23,08,42,8.10
2009,10,23,08,43,0.00
2009,10,23,08,44,1.60
2009,10,23,08,45,1.60
2009,10,23,08,46,3.20
2009,10,23,08,47,3.20
2009,10,23,08,48,4.80
2009,10,23,08,49,1.60
2009,10,23,08,50,4.80
2009,10,23,08,51,3.20
2009,10,23,08,52,6.40
2009,10,23,08,53,1.60
2009,10,23,08,54,1.60
2009,10,23,08,55,1.60
2009,10,23,08,56,1.60
2009,10,23,08,57,0.00
2009,10,23,08,58,0.00
2009,10,23,08,59,0.00
2009,10,23,09,00,1.60
2009,10,23,09,01,0.00
2009,10,23,09,02,0.00
2009,10,23,09,03,1.60
2009,10,23,09,04,1.60
2009,10,23,09,05,4.80
2009,10,23,09,06,6.40
2009,10,23,09,07,1.60
2009,10,23,09,08,1.60
2009,10,23,09,09,1.60
2009,10,23,09,10,1.60
2009,10,23,09,11,9.60
2009,10,23,09,12,6.40
2009,10,23,09,13,8.10
2009,10,23,09,14,6.40
2009,10,23,09,15,1.60
2009,10,23,09,16,1.60
2009,10,23,09,17,9.60
2009,10,23,09,18,9.60
2009,10,23,09,19,4.80
2009,10,23,09,20,9.60
2009,10,23,09,21,9.60
2009,10,23,09,22,8.10
2009,10,23,09,23,6.40
2009,10,23,09,24,3.20
2009,10,23,09,25,16.10
2009,10,23,09,26,3.20
2009,10,23,09,27,6.40
2009,10,23,09,28,9.60
2009,10,23,09,29,1.60
2009,10,23,09,30,8.10
2009,10,23,09,31,0.00
2009,10,23,09,32,9.60
2009,10,23,09,33,8.10
2009,10,23,09,34,3.20
2009,10,23,09,35,3.20
2009,10,23,09,36,3.20
2009,10,23,09,37,1.60
2009,10,23,09,38,8.10
2009,10,23,09,39,8.10
2009,10,23,09,40,3.20
2009,10,23,09,41,8.10
2009,10,23,09,42,4.80
2009,10,23,09,43,1.60
2009,10,23,09,44,4.80
2009,10,23,09,45,3.20
2009,10,23,09,46,4.80
2009,10,23,09,47,1.60
2009,10,23,09,48,9.60
2009,10,23,09,49,6.40
2009,10,23,09,50,14.50
2009,10,23,09,51,11.30
2009,10,23,09,52,9.60
2009,10,23,09,53,6.40
2009,10,23,09,54,9.60
2009,10,23,09,55,6.40
2009,10,23,09,56,6.40
2009,10,23,09,57,12.90
2009,10,23,09,58,4.80
2009,10,23,09,59,1.60
2009,10,23,10,00,1.60
2009,10,23,10,01,9.60
2009,10,23,10,02,14.50
2009,10,23,10,03,3.20
2009,10,23,10,04,3.20
2009,10,23,10,05,6.40
2009,10,23,10,06,8.10
2009,10,23,10,07,0.00
2009,10,23,10,08,9.60
2009,10,23,10,09,4.80
2009,10,23,10,10,6.40
2009,10,23,10,11,8.10
2009,10,23,10,12,6.40
2009,10,23,10,13,1.60
2009,10,23,10,14,3.20
2009,10,23,10,15,6.40
2009,10,23,10,16,4.80
2009,10,23,10,17,3.20
2009,10,23,10,18,4.80
2009,10,23,10,19,8.10
2009,10,23,10,20,1.60
2009,10,23,10,21,1.60
2009,10,23,10,22,4.80
2009,10,23,10,23,8.10
2009,10,23,10,24,6.40
2009,10,23,10,25,1.60
2009,10,23,10,26,3.20
2009,10,23,10,27,6.40
2009,10,23,10,28,3.20
2009,10,23,10,29,4.80
2009,10,23,10,30,4.80
2009,10,23,10,31,6.40
2009,10,23,10,32,4.80
2009,10,23,10,33,3.20
2009,10,23,10,34,6.40
2009,10,23,10,35,3.20
2009,10,23,10,36,3.20
2009,10,23,10,37,0.00
2009,10,23,10,38,4.80
2009,10,23,10,39,17.70
2009,10,23,10,40,3.20
2009,10,23,10,41,8.10
2009,10,23,10,42,11.30
2009,10,23,10,43,14.50
2009,10,23,10,44,8.10
2009,10,23,10,45,9.60
2009,10,23,10,46,8.10
2009,10,23,10,47,8.10
2009,10,23,10,48,1.60
2009,10,23,10,49,3.20
2009,10,23,10,50,4.80
2009,10,23,10,51,3.20
2009,10,23,10,52,1.60
2009,10,23,10,53,0.00
2009,10,23,10,54,9.60
2009,10,23,10,55,1.60
2009,10,23,10,56,3.20
2009,10,23,10,57,4.80
2009,10,23,10,58,11.30
2009,10,23,10,59,4.80
2009,10,23,11,00,8.10
2009,10,23,11,01,3.20
2009,10,23,11,02,3.20
2009,10,23,11,03,6.40
2009,10,23,11,04,6.40
2009,10,23,11,05,1.60
2009,10,23,11,06,0.00
2009,10,23,11,07,3.20
2009,10,23,11,08,9.60
2009,10,23,11,09,1.60
2009,10,23,11,10,4.80
2009,10,23,11,11,9.60
2009,10,23,11,12,6.40
2009,10,23,11,13,4.80
2009,10,23,11,14,11.30
2009,10,23,11,15,17.70
2009,10,23,11,16,11.30
2009,10,23,11,17,6.40
2009,10,23,11,18,4.80
2009,10,23,11,19,8.10
2009,10,23,11,20,3.20
2009,10,23,11,21,3.20
2009,10,23,11,22,4.80
2009,10,23,11,23,3.20
2009,10,23,11,24,4.80
2009,10,23,11,25,1.60
2009,10,23,11,26,3.20
2009,10,23,11,27,3.20
2009,10,23,11,28,4.80
2009,10,23,11,29,4.80
2009,10,23,11,30,1.60
2009,10,23,11,31,0.00
2009,10,23,11,32,1.60
2009,10,23,11,33,11.30
2009,10,23,11,34,6.40
2009,10,23,11,35,9.60
2009,10,23,11,36,6.40
2009,10,23,11,37,4.80
2009,10,23,11,38,4.80
2009,10,23,11,39,16.10
2009,10,23,11,40,4.80
2009,10,23,11,41,4.80
2009,10,23,11,42,14.50
2009,10,23,11,43,3.20
2009,10,23,11,44,8.10
2009,10,23,11,45,6.40
2009,10,23,11,46,6.40
2009,10,23,11,47,8.10
2009,10,23,11,48,3.20
2009,10,23,11,49,4.80
2009,10,23,11,50,3.20
2009,10,23,11,51,4.80
2009,10,23,11,52,4.80
2009,10,23,11,53,0.00
2009,10,23,11,54,6.40
2009,10,23,11,55,6.40
2009,10,23,11,56,0.00
2009,10,23,11,57,6.40
2009,10,23,11,58,4.80
2009,10,23,11,59,1.60
2009,10,23,12,00,3.20
2009,10,23,12,01,3.20
2009,10,23,12,02,1.60
2009,10,23,12,03,3.20
2009,10,23,12,04,3.20
2009,10,23,12,05,8.10
2009,10,23,12,06,8.10
2009,10,23,12,07,8.10
2009,10,23,12,08,3.20
2009,10,23,12,09,4.80
2009,10,23,12,10,1.60
2009,10,23,12,11,4.80
2009,10,23,12,12,9.60
2009,10,23,12,13,6.40
2009,10,23,12,14,8.10
2009,10,23,12,15,6.40
2009,10,23,12,16,1.60
2009,10,23,12,17,4.80
2009,10,23,12,18,6.40
2009,10,23,12,19,4.80
2009,10,23,12,20,1.60
2009,10,23,12,21,3.20
2009,10,23,12,22,8.10
2009,10,23,12,23,3.20
2009,10,23,12,24,8.10
2009,10,23,12,25,4.80
2009,10,23,12,26,6.40
2009,10,23,12,27,6.40
2009,10,23,12,28,4.80
2009,10,23,12,29,9.60
2009,10,23,12,30,4.80
2009,10,23,12,31,1.60
2009,10,23,12,32,1.60
2009,10,23,12,33,1.60
2009,10,23,12,34,1.60
2009,10,23,12,35,0.00
2009,10,23,12,36,6.40
2009,10,23,12,37,9.60
2009,10,23,12,38,1.60
2009,10,23,12,39,3.20
2009,10,23,12,40,1.60
2009,10,23,12,41,1.60
2009,10,23,12,42,1.60
2009,10,23,12,43,3.20
2009,10,23,12,44,6.40
2009,10,23,12,45,11.30
2009,10,23,12,46,9.60
2009,10,23,12,47,4.80
2009,10,23,12,48,3.20
2009,10,23,12,49,6.40
2009,10,23,12,50,1.60
2009,10,23,12,51,3.20
2009,10,23,12,52,3.20
2009,10,23,12,53,1.60
2009,10,23,12,54,0.00
2009,10,23,12,55,0.00
2009,10,23,12,56,1.60
2009,10,23,12,57,1.60
2009,10,23,12,58,0.00
2009,10,23,12,59,1.60
2009,10,23,13,00,4.80
2009,10,23,13,01,0.00
2009,10,23,13,02,6.40
2009,10,23,13,03,6.40
2009,10,23,13,04,4.80
2009,10,23,13,05,4.80
2009,10,23,13,06,3.20
2009,10,23,13,07,3.20
2009,10,23,13,08,0.00
2009,10,23,13,09,6.40
2009,10,23,13,10,1.60
2009,10,23,13,11,4.80
2009,10,23,13,12,9.60
2009,10,23,13,13,4.80
2009,10,23,13,14,1.60
2009,10,23,13,15,1.60
2009,10,23,13,16,6.40
2009,10,23,13,17,4.80
2009,10,23,13,18,6.40
2009,10,23,13,19,6.40
2009,10,23,13,20,1.60
2009,10,23,13,21,0.00
2009,10,23,13,22,1.60
2009,10,23,13,23,1.60
2009,10,23,13,24,1.60
2009,10,23,13,25,3.20
2009,10,23,13,26,0.00
2009,10,23,13,27,0.00
2009,10,23,13,28,1.60
2009,10,23,13,29,0.00
2009,10,23,13,30,0.00
2009,10,23,13,31,0.00
2009,10,23,13,32,0.00
2009,10,23,13,33,0.00
2009,10,23,13,34,0.00
2009,10,23,13,35,0.00
2009,10,23,13,36,1.60
2009,10,23,13,37,3.20
2009,10,23,13,38,3.20
2009,10,23,13,39,0.00
2009,10,23,13,40,0.00
2009,10,23,13,41,1.60
2009,10,23,13,42,0.00
2009,10,23,13,43,0.00
2009,10,23,13,44,3.20
2009,10,23,13,45,6.40
2009,10,23,13,46,0.00
2009,10,23,13,47,0.00
2009,10,23,13,48,0.00
2009,10,23,13,49,0.00
2009,10,23,13,50,0.00
2009,10,23,13,51,0.00
2009,10,23,13,52,0.00
2009,10,23,13,53,0.00
2009,10,23,13,54,0.00
2009,10,23,13,55,0.00
2009,10,23,13,56,1.60
2009,10,23,13,57,3.20
2009,10,23,13,58,1.60
2009,10,23,13,59,3.20
2009,10,23,14,00,0.00
2009,10,23,14,01,0.00
2009,10,23,14,02,1.60
2009,10,23,14,03,3.20
2009,10,23,14,04,1.60
2009,10,23,14,05,3.20
2009,10,23,14,06,1.60
2009,10,23,14,07,3.20
2009,10,23,14,08,1.60
2009,10,23,14,09,1.60
2009,10,23,14,10,1.60
2009,10,23,14,11,0.00
2009,10,23,14,12,0.00
2009,10,23,14,13,0.00
2009,10,23,14,14,0.00
2009,10,23,14,15,0.00
2009,10,23,14,16,0.00
2009,10,23,14,17,0.00
2009,10,23,14,18,0.00
2009,10,23,14,19,0.00
2009,10,23,14,20,0.00
2009,10,23,14,21,0.00
2009,10,23,14,22,1.60
2009,10,23,14,23,1.60
2009,10,23,14,24,0.00
2009,10,23,14,25,1.60
2009,10,23,14,26,0.00
2009,10,23,14,27,0.00
2009,10,23,14,28,0.00
2009,10,23,14,29,0.00
2009,10,23,14,30,0.00
2009,10,23,14,31,0.00
2009,10,23,14,32,0.00
2009,10,23,14,33,0.00
2009,10,23,14,34,0.00
2009,10,23,14,35,0.00
2009,10,23,14,36,0.00
2009,10,23,14,37,0.00
2009,10,23,14,38,0.00
2009,10,23,14,39,0.00
2009,10,23,14,40,1.60
2009,10,23,14,41,3.20
2009,10,23,14,42,0.00
2009,10,23,14,43,0.00
2009,10,23,14,44,0.00
2009,10,23,14,45,0.00
2009,10,23,14,46,0.00
2009,10,23,14,47,0.00
2009,10,23,14,48,0.00
2009,10,23,14,49,0.00
2009,10,23,14,50,0.00
2009,10,23,14,51,0.00
2009,10,23,14,52,1.60
2009,10,23,14,53,0.00
2009,10,23,14,54,0.00
2009,10,23,14,55,0.00
2009,10,23,14,56,1.60
2009,10,23,14,57,3.20
2009,10,23,14,58,3.20
2009,10,23,14,59,6.40
2009,10,23,15,00,0.00
2009,10,23,15,01,1.60
2009,10,23,15,02,1.60
2009,10,23,15,03,0.00
2009,10,23,15,04,3.20
2009,10,23,15,05,1.60
2009,10,23,15,06,0.00
2009,10,23,15,07,3.20
2009,10,23,15,08,1.60
2009,10,23,15,09,0.00
2009,10,23,15,10,0.00
2009,10,23,15,11,0.00
2009,10,23,15,12,0.00
2009,10,23,15,13,0.00
2009,10,23,15,14,0.00
2009,10,23,15,15,0.00
2009,10,23,15,16,0.00
2009,10,23,15,17,0.00
2009,10,23,15,18,0.00
2009,10,23,15,19,4.80
2009,10,23,15,20,1.60
2009,10,23,15,21,6.40
2009,10,23,15,22,1.60
2009,10,23,15,23,1.60
2009,10,23,15,24,1.60
2009,10,23,15,25,3.20
2009,10,23,15,26,1.60
2009,10,23,15,27,11.30
2009,10,23,15,28,6.40
2009,10,23,15,29,4.80
2009,10,23,15,30,11.30
2009,10,23,15,31,19.30
2009,10,23,15,32,8.10
2009,10,23,15,33,22.50
2009,10,23,15,34,11.30
2009,10,23,15,35,20.90
2009,10,23,15,36,19.30
2009,10,23,15,37,14.50
2009,10,23,15,38,19.30
2009,10,23,15,39,9.60
2009,10,23,15,40,6.40
2009,10,23,15,41,22.50
2009,10,23,15,42,9.60
2009,10,23,15,43,14.50
2009,10,23,15,44,30.60
2009,10,23,15,45,12.90
2009,10,23,15,46,46.70
2009,10,23,15,47,24.20
2009,10,23,15,48,22.50
2009,10,23,15,49,30.60
2009,10,23,15,50,20.90
2009,10,23,15,51,24.20
2009,10,23,15,52,20.90
2009,10,23,15,53,16.10
2009,10,23,15,54,25.70
2009,10,23,15,55,9.60
2009,10,23,15,56,22.50
2009,10,23,15,57,49.90
2009,10,23,15,58,14.50
2009,10,23,15,59,25.70
2009,10,23,16,00,14.50
2009,10,23,16,01,27.40
2009,10,23,16,02,35.40
2009,10,23,16,03,24.20
2009,10,23,16,04,14.50
2009,10,23,16,05,22.50
2009,10,23,16,06,29.00
2009,10,23,16,07,29.00
2009,10,23,16,08,16.10
2009,10,23,16,09,16.10
2009,10,23,16,10,9.60
2009,10,23,16,11,14.50
2009,10,23,16,12,27.40
2009,10,23,16,13,16.10
2009,10,23,16,14,9.60
2009,10,23,16,15,25.70
2009,10,23,16,16,25.70
2009,10,23,16,17,14.50
2009,10,23,16,18,17.70
2009,10,23,16,19,30.60
2009,10,23,16,20,24.20
2009,10,23,16,21,25.70
2009,10,23,16,22,30.60
2009,10,23,16,23,49.90
2009,10,23,16,24,27.40
2009,10,23,16,25,30.60
2009,10,23,16,26,22.50
2009,10,23,16,27,33.80
2009,10,23,16,28,38.60
2009,10,23,16,29,37.00
2009,10,23,16,30,32.20
2009,10,23,16,31,41.80
2009,10,23,16,32,29.00
2009,10,23,16,33,32.20
2009,10,23,16,34,38.60
2009,10,23,16,35,30.60
2009,10,23,16,36,19.30
2009,10,23,16,37,24.20
2009,10,23,16,38,29.00
2009,10,23,16,39,22.50
2009,10,23,16,40,22.50
2009,10,23,16,41,27.40
2009,10,23,16,42,33.80
2009,10,23,16,43,32.20
2009,10,23,16,44,33.80
2009,10,23,16,45,32.20
2009,10,23,16,46,35.40
2009,10,23,16,47,29.00
2009,10,23,16,48,25.70
2009,10,23,16,49,19.30
2009,10,23,16,50,20.90
2009,10,23,16,51,41.80
2009,10,23,16,52,43.50
2009,10,23,16,53,27.40
2009,10,23,16,54,24.20
2009,10,23,16,55,24.20
2009,10,23,16,56,24.20
2009,10,23,16,57,19.30
2009,10,23,16,58,35.40
2009,10,23,16,59,27.40
2009,10,23,17,00,22.50
2009,10,23,17,01,19.30
2009,10,23,17,02,24.20
2009,10,23,17,03,19.30
2009,10,23,17,04,29.00
2009,10,23,17,05,25.70
2009,10,23,17,06,24.20
2009,10,23,17,07,33.80
2009,10,23,17,08,19.30
2009,10,23,17,09,14.50
2009,10,23,17,10,16.10
2009,10,23,17,11,25.70
2009,10,23,17,12,30.60
2009,10,23,17,13,29.00
2009,10,23,17,14,29.00
2009,10,23,17,15,19.30
2009,10,23,17,16,27.40
2009,10,23,17,17,17.70
2009,10,23,17,18,17.70
2009,10,23,17,19,17.70
2009,10,23,17,20,25.70
2009,10,23,17,21,24.20
2009,10,23,17,22,29.00
2009,10,23,17,23,33.80
2009,10,23,17,24,30.60
2009,10,23,17,25,14.50
2009,10,23,17,26,32.20
2009,10,23,17,27,53.10
2009,10,23,17,28,51.50
2009,10,23,17,29,20.90
2009,10,23,17,30,19.30
2009,10,23,17,31,32.20
2009,10,23,17,32,38.60
2009,10,23,17,33,35.40
2009,10,23,17,34,49.90
2009,10,23,17,35,24.20
2009,10,23,17,36,29.00
2009,10,23,17,37,20.90
2009,10,23,17,38,29.00
2009,10,23,17,39,25.70
2009,10,23,17,40,41.80
2009,10,23,17,41,33.80
2009,10,23,17,42,27.40
2009,10,23,17,43,22.50
2009,10,23,17,44,27.40
2009,10,23,17,45,16.10
2009,10,23,17,46,29.00
2009,10,23,17,47,24.20
2009,10,23,17,48,30.60
2009,10,23,17,49,38.60
2009,10,23,17,50,43.50
2009,10,23,17,51,27.40
2009,10,23,17,52,27.40
2009,10,23,17,53,25.70
2009,10,23,17,54,35.40
2009,10,23,17,55,24.20
2009,10,23,17,56,33.80
2009,10,23,17,57,19.30
2009,10,23,17,58,30.60
2009,10,23,17,59,29.00